Theta_e
304 303 303 303 302 302 303 303 304 303 303 304 307 311 314 318 318 309 303 303 307 316 320 316 317 315 307 305 305 305 308 307 305 306 306 306 305 306 308 309 306 305 307 307 306 306 307 307 306 306 309 308 303 300 299 300 301 300 300 302 299 299 304 304 307 310 303 298 297 297 298 298 298 301 300 301 304 304 304 305 303 300 301 300 299 301 302
303 303 303 303 302 302 303 304 303 303 304 303 306 316 322 318 313 310 306 303 307 316 322 323 318 308 304 306 305 303 306 306 305 306 307 306 304 306 308 306 304 305 307 307 306 305 305 306 305 302 307 307 298 298 299 298 300 301 301 302 299 300 304 304 307 313 309 305 304 303 301 298 299 302 300 300 302 301 300 299 297 299 301 300 301 304 303
303 303 303 303 302 302 303 303 303 303 303 303 307 314 319 316 312 312 310 306 307 314 322 329 323 310 307 308 306 306 305 304 305 306 307 305 303 305 306 305 305 306 306 306 306 305 304 305 304 301 304 304 298 297 298 298 301 301 298 299 300 302 305 303 306 311 311 311 312 311 309 304 301 301 299 299 300 299 299 299 298 300 300 297 301 305 303
303 303 303 302 302 302 303 303 303 303 302 304 306 307 311 315 314 316 318 316 314 314 314 320 321 315 312 308 305 307 306 304 305 306 306 305 303 304 304 304 305 306 307 308 308 306 305 303 302 303 304 303 299 297 297 298 300 299 296 297 299 302 304 302 305 309 308 309 309 307 305 303 301 301 299 299 299 298 300 302 300 301 300 298 300 302 301
303 302 303 302 302 302 303 303 303 303 303 303 306 309 311 313 315 316 316 316 316 314 312 314 316 316 316 310 305 307 307 306 304 303 304 305 304 304 304 303 305 306 307 309 309 308 306 302 302 303 303 301 298 296 297 297 297 297 297 297 298 302 305 303 303 304 304 304 304 302 301 300 300 300 301 301 299 297 298 300 300 300 300 301 301 300 300
303 303 302 302 302 302 303 304 302 302 303 302 308 316 315 312 314 311 307 311 315 312 310 314 313 311 312 309 306 308 309 309 309 305 302 304 304 304 306 305 306 309 309 307 308 308 306 305 304 302 301 301 298 297 298 297 297 297 297 297 298 302 305 304 302 302 302 300 300 300 299 298 298 299 299 300 299 298 297 298 298 298 299 301 301 300 300
302 303 302 301 303 302 303 304 302 302 303 301 307 317 314 311 313 307 304 312 315 308 307 313 314 310 310 309 307 309 311 310 312 307 302 305 305 304 308 310 310 312 309 305 308 309 307 306 306 303 302 301 301 301 302 299 296 297 297 296 297 300 305 305 301 302 302 300 300 300 298 299 299 299 299 299 298 298 297 297 296 296 297 298 298 298 298
302 302 302 301 302 302 303 303 302 302 302 301 306 313 312 313 314 309 308 312 309 305 306 311 313 308 306 308 307 309 312 311 309 306 304 307 306 303 307 313 313 312 309 306 308 309 307 305 304 304 303 301 303 305 306 304 298 296 297 297 295 298 305 305 301 302 303 302 303 303 301 302 301 299 299 299 298 298 296 295 296 296 296 296 296 296 296
302 302 302 302 302 302 303 303 302 303 302 303 308 309 306 307 307 309 316 314 305 305 308 309 312 311 307 308 307 306 311 314 310 307 305 307 309 307 309 313 312 308 306 308 309 307 307 306 305 307 306 302 303 303 302 305 303 298 297 298 297 296 302 305 301 302 305 303 303 303 300 301 302 302 302 300 298 299 299 297 296 297 298 298 297 297 298
302 302 302 302 302 302 303 303 302 302 302 303 309 309 303 302 302 306 316 314 305 306 307 305 308 311 311 312 309 307 312 314 310 305 306 307 308 308 309 311 311 308 308 309 308 305 305 304 302 305 304 300 301 302 301 304 307 301 297 298 298 296 300 303 301 303 308 305 301 300 299 304 310 312 312 308 301 300 300 298 297 297 298 299 300 300 300
302 303 302 303 303 302 303 302 301 302 302 302 307 309 305 304 306 309 313 313 309 307 308 307 307 309 311 312 310 308 311 314 309 304 306 308 305 305 306 306 307 310 309 304 300 298 299 299 299 301 301 300 300 301 301 302 303 302 300 300 299 297 299 301 299 302 309 306 301 299 302 311 317 313 312 310 304 302 303 301 299 298 297 298 300 299 299
302 302 302 302 302 302 302 302 301 302 301 302 306 308 305 304 308 312 314 312 310 306 305 309 313 313 311 311 311 310 310 311 308 307 310 308 304 305 306 304 304 305 301 296 296 297 299 299 300 301 302 302 302 301 300 301 299 299 301 303 301 298 298 300 300 301 305 304 303 305 310 317 314 305 302 303 300 300 301 300 299 297 296 297 298 297 297
301 301 301 302 301 302 302 302 302 302 301 302 304 306 306 303 304 314 318 313 313 314 310 308 307 308 309 310 311 309 305 304 304 307 309 307 306 308 305 303 304 301 295 295 298 300 303 304 302 302 301 300 300 300 300 302 300 297 299 302 303 301 300 301 300 301 303 304 304 307 309 309 306 300 297 296 297 297 298 299 300 299 297 296 296 297 297
301 301 302 302 301 302 302 302 302 302 301 302 302 304 306 303 303 313 317 311 311 316 313 308 307 306 307 309 309 305 300 300 303 306 305 304 308 309 302 298 298 295 293 297 298 299 304 305 304 306 306 302 302 303 301 300 299 297 298 299 300 301 301 301 300 301 303 303 304 306 304 305 308 305 298 296 298 299 300 302 302 300 300 299 297 298 298
302 302 302 302 302 302 301 302 302 301 301 301 302 303 304 303 302 308 312 311 310 311 308 308 312 312 311 309 308 307 303 301 302 303 302 302 303 301 296 295 295 293 294 297 300 302 302 304 306 309 310 308 307 306 303 299 296 294 296 298 298 298 299 299 300 302 303 300 303 306 306 309 315 309 296 294 297 299 300 300 299 300 302 300 298 299 299
301 302 302 302 302 302 301 302 301 301 301 301 302 302 302 302 301 302 306 311 311 307 307 307 309 310 309 306 304 306 309 306 305 306 305 304 302 298 295 294 293 294 296 298 301 303 302 304 306 307 309 310 306 304 303 302 299 294 292 296 297 296 298 298 298 301 302 300 302 306 306 307 311 306 295 293 296 297 298 300 302 304 304 301 299 300 299
301 301 301 301 302 301 302 302 301 301 302 301 301 302 301 301 301 301 306 311 310 307 302 296 302 308 308 307 305 306 309 307 305 308 309 306 302 299 296 294 294 295 298 299 301 303 304 305 305 306 310 308 302 302 304 303 304 300 295 295 296 296 297 298 297 299 300 299 302 304 303 303 305 302 295 293 293 295 299 304 306 307 305 302 301 301 299
301 301 301 301 301 301 301 302 302 301 301 301 301 301 300 301 300 300 307 312 311 309 297 289 299 306 305 306 308 306 305 304 305 310 308 302 301 302 300 298 298 297 297 300 303 304 304 306 306 308 312 307 300 302 305 303 305 305 299 297 296 296 296 296 297 299 298 298 301 301 302 305 304 298 294 293 294 296 301 307 307 304 304 302 300 299 298
301 301 301 300 300 301 301 302 302 302 302 301 301 301 301 301 299 299 308 314 313 309 296 287 295 301 295 297 305 303 299 301 308 314 310 303 302 302 300 299 299 299 298 299 303 305 304 308 308 305 308 308 302 301 304 304 304 302 299 301 302 300 299 297 296 298 298 299 300 300 304 305 299 293 291 291 297 302 305 306 305 302 301 300 298 297 296
301 301 300 300 300 300 301 302 301 301 301 300 300 300 300 299 299 300 306 313 316 311 296 287 292 295 291 295 303 302 300 301 307 314 314 309 302 299 302 303 301 301 299 299 304 306 304 308 309 302 305 311 305 301 303 307 307 303 301 306 307 303 303 304 301 300 300 299 298 304 311 305 294 293 294 293 298 306 305 302 302 301 299 299 297 296 295
301 301 300 300 300 300 300 301 300 300 301 299 299 300 299 298 299 300 301 306 315 315 300 289 290 291 289 290 292 293 298 300 301 305 310 308 302 300 304 307 304 302 301 302 306 306 303 306 308 303 305 307 303 303 306 307 309 305 299 302 305 302 304 309 307 303 304 304 304 310 314 304 293 296 302 300 299 302 300 298 299 298 298 298 297 296 296
301 301 301 300 300 300 299 300 300 300 300 300 299 299 299 298 298 301 300 299 302 302 295 289 288 288 287 288 287 287 290 291 291 294 299 302 301 299 301 304 302 301 301 301 305 305 303 305 305 302 305 305 303 305 306 303 308 307 299 299 306 306 307 308 306 305 305 306 307 306 306 302 295 295 300 300 298 298 298 297 297 296 296 297 296 296 296
301 300 301 300 300 300 299 299 299 300 299 299 299 299 299 298 298 299 299 296 292 291 290 288 291 291 289 289 288 287 287 288 288 289 292 299 303 299 298 301 301 300 300 301 304 306 305 305 304 301 304 306 304 305 304 302 307 308 302 302 306 303 301 301 302 304 304 302 302 301 300 301 300 296 296 297 296 296 296 296 296 296 296 296 296 296 296
301 300 300 300 300 300 300 299 299 299 298 299 300 299 298 299 298 299 299 297 297 300 297 292 294 296 293 289 288 288 287 288 289 289 289 294 302 302 300 299 297 298 301 299 298 300 301 302 300 299 301 304 303 303 303 304 306 306 305 308 309 301 297 297 300 302 301 300 301 301 299 299 299 297 297 297 296 296 296 296 296 296 296 296 295 295 295
300 300 300 300 300 299 300 299 299 300 299 299 299 299 299 299 298 299 301 300 303 312 312 302 296 293 289 288 289 289 289 288 287 288 288 289 294 299 300 296 293 296 299 295 292 296 299 299 299 299 301 303 302 301 302 304 304 302 301 306 307 300 297 298 299 299 298 299 300 299 298 298 298 297 298 298 297 297 297 296 296 296 295 295 294 294 294
300 300 299 300 300 299 300 300 299 299 299 299 299 298 299 299 298 298 302 302 302 310 316 310 299 291 288 290 290 288 288 288 286 287 288 288 288 291 292 292 292 293 293 291 293 298 300 299 300 301 303 302 300 300 302 302 301 300 299 300 300 298 298 300 300 299 299 300 299 298 298 299 299 299 298 298 297 297 296 296 295 295 295 294 294 293 293
300 300 299 300 300 299 300 300 299 299 298 298 299 298 298 299 298 298 301 302 302 308 315 312 300 292 289 290 289 287 287 287 287 287 287 287 288 288 289 291 294 295 294 294 296 297 298 298 299 302 303 301 298 297 299 298 297 298 300 300 297 297 300 301 300 300 301 300 299 299 298 298 298 298 298 297 297 296 295 295 295 294 294 294 294 293 293
300 300 300 299 299 299 300 299 299 299 298 298 299 299 298 299 298 298 299 300 300 306 311 305 297 294 294 293 289 288 288 288 287 287 287 287 287 289 290 291 293 295 296 297 297 297 298 299 301 302 302 299 297 299 299 298 296 299 303 302 298 299 301 300 299 300 300 299 298 298 297 296 297 297 296 296 296 295 294 294 294 294 294 293 293 293 292
299 300 300 299 299 299 299 299 298 299 299 299 299 299 299 298 297 298 299 299 298 301 303 301 297 297 298 296 290 288 289 290 289 288 288 288 289 290 291 292 293 295 296 296 297 298 300 301 301 300 296 293 296 300 300 299 299 302 305 304 300 300 301 299 298 298 298 297 298 297 296 296 296 295 295 295 294 294 294 294 293 293 293 292 292 292 292
299 299 299 299 300 299 298 299 298 299 300 298 299 304 307 302 298 297 298 298 297 300 306 312 306 298 294 293 291 290 290 289 289 289 289 290 291 291 291 292 292 292 294 295 296 298 300 300 298 296 293 293 296 299 298 299 301 303 305 305 302 301 300 298 297 297 296 297 297 296 295 296 295 294 295 294 293 294 294 293 293 293 292 292 292 291 291
299 299 299 299 300 299 299 299 298 299 300 298 301 309 313 306 300 297 297 298 298 300 308 314 306 296 294 293 292 292 291 290 290 291 290 291 292 291 291 292 292 293 295 297 296 297 298 299 298 296 294 295 299 300 298 298 301 304 305 305 302 299 298 297 296 296 296 296 296 295 295 296 295 294 294 294 293 293 293 293 293 292 292 292 291 291 290
299 299 298 299 299 299 299 299 298 299 300 299 300 305 304 300 299 297 297 299 298 299 309 315 305 300 303 299 291 290 292 291 290 290 291 291 291 291 290 291 292 293 294 296 297 297 297 297 298 297 295 295 298 299 297 297 301 305 305 302 299 297 297 296 296 296 296 296 295 295 295 295 294 294 294 293 293 292 292 293 293 292 292 292 292 291 291
299 299 298 299 299 299 299 299 298 299 300 299 299 299 297 298 299 297 297 299 297 297 307 315 307 301 303 299 292 291 291 292 292 292 293 292 290 291 292 291 291 292 294 295 297 297 296 296 296 296 295 294 296 297 297 298 302 304 303 300 298 297 296 296 295 295 295 295 294 294 294 294 294 293 293 293 293 293 292 292 292 292 292 292 292 292 291
299 299 299 299 299 299 299 299 298 299 300 299 298 298 297 298 298 297 298 299 298 299 305 309 309 307 303 300 299 294 290 293 297 297 295 293 290 291 294 293 291 293 295 295 295 296 295 296 296 295 294 294 295 296 299 302 303 302 301 298 296 296 296 296 295 295 295 294 294 294 293 293 293 293 293 293 293 293 293 292 292 292 292 292 292 292 291
299 299 299 299 299 299 299 299 299 299 299 298 298 298 298 297 297 298 299 298 301 306 307 305 310 313 307 308 311 300 289 293 299 296 295 294 290 290 294 294 293 295 294 293 294 296 295 295 297 295 294 293 294 298 303 305 303 300 298 296 296 295 295 295 295 295 294 294 294 294 293 293 293 293 293 293 293 293 293 292 292 293 292 292 292 291 291
300 299 299 299 299 299 299 299 299 299 299 299 298 297 298 298 297 298 298 298 301 306 307 307 312 311 303 307 311 299 291 296 301 295 294 295 292 291 293 294 295 296 294 292 296 297 293 293 295 295 293 295 300 304 304 303 301 298 297 296 296 295 295 295 294 294 294 294 294 294 294 293 294 293 293 293 293 293 293 293 292 292 292 292 292 291 291
299 299 300 299 299 300 300 299 298 298 299 298 297 297 298 298 298 298 299 299 299 301 304 311 314 305 297 301 304 296 294 301 302 296 295 297 296 294 294 295 298 298 295 296 298 296 292 293 295 295 296 300 303 303 300 298 298 297 297 296 296 295 295 295 294 294 294 294 294 294 293 293 293 293 293 293 293 292 292 292 292 292 292 292 291 291 291
300 300 300 299 301 304 305 301 298 299 298 297 298 299 298 299 301 304 303 303 303 301 303 309 308 299 296 301 301 295 295 301 303 300 298 297 296 295 294 295 297 297 297 298 295 291 292 295 294 295 298 300 298 298 299 299 298 298 297 296 296 295 295 294 294 293 294 293 293 293 293 293 293 293 292 292 292 292 292 292 292 291 291 291 291 291 290
301 300 299 299 302 304 304 300 298 299 298 297 298 301 301 301 305 307 305 304 304 303 305 307 303 296 297 303 302 295 293 296 301 303 300 298 298 297 296 296 296 295 298 299 294 289 293 296 293 294 301 305 302 300 300 299 298 297 296 294 294 293 293 293 293 293 293 293 293 292 292 292 292 292 292 292 292 292 291 291 291 291 291 291 290 290 290
301 299 300 302 302 301 300 299 298 298 299 300 301 303 305 306 305 304 304 307 305 302 301 301 297 292 293 297 298 296 293 293 296 299 298 298 297 295 295 297 295 294 298 300 294 291 295 297 293 295 303 308 305 301 297 296 296 296 294 293 293 293 292 292 292 292 292 292 292 292 291 291 291 292 292 292 291 291 291 291 291 291 290 290 290 290 290
301 300 301 302 301 298 298 298 298 298 301 304 305 306 308 306 302 299 304 310 307 301 296 296 298 298 295 293 295 297 294 290 290 293 295 296 295 294 296 296 293 293 298 298 292 291 295 296 296 300 305 306 302 298 296 295 295 294 293 292 292 292 292 291 292 292 292 291 291 291 291 291 291 291 291 291 291 291 291 290 290 290 290 290 290 290 290
301 300 300 300 298 297 298 300 300 301 303 307 308 306 306 305 303 302 303 304 302 299 296 295 297 299 295 291 291 293 292 289 290 292 294 296 295 294 294 293 293 296 298 294 289 292 296 297 301 306 306 302 298 296 295 294 294 293 293 292 291 292 292 291 291 292 291 291 291 291 291 291 291 291 291 291 290 290 290 290 290 290 290 290 290 290 290
300 298 298 298 298 299 301 302 302 303 307 310 308 307 306 306 305 304 304 302 299 299 298 295 293 294 293 290 289 290 290 289 291 292 293 294 294 292 293 294 295 296 294 290 290 295 298 300 304 306 301 297 296 295 294 294 294 293 293 292 291 292 292 291 291 291 291 291 291 291 291 291 291 291 291 291 290 290 290 290 290 290 290 290 290 289 289
300 298 298 301 302 302 303 304 303 304 306 307 306 305 307 307 305 305 306 304 300 298 298 296 294 296 296 293 291 292 292 291 291 292 293 292 292 292 296 298 297 293 291 292 295 297 298 301 303 301 296 294 294 294 293 293 293 293 292 292 291 292 292 291 291 291 291 291 291 291 291 291 291 291 291 291 290 290 290 290 290 290 290 290 289 289 289
303 303 305 307 306 304 304 306 306 304 304 305 306 306 305 306 308 307 304 299 297 297 298 296 294 296 296 293 291 292 292 292 293 293 293 292 293 295 296 296 294 292 293 296 297 297 298 299 300 297 294 293 293 293 293 293 292 292 292 292 291 291 291 291 291 291 290 291 291 291 291 291 290 290 290 290 290 290 290 290 290 290 289 289 289 289 289
302 303 307 309 306 303 303 306 307 305 303 304 307 307 304 303 306 303 296 293 295 297 296 294 293 294 296 294 292 291 291 292 293 292 290 292 296 297 293 292 293 295 297 299 300 300 300 299 297 294 293 293 292 293 293 292 291 291 292 292 292 291 291 291 291 290 290 291 291 290 290 290 290 290 290 290 290 290 290 289 289 288 288 288 288 288 288
302 303 306 308 307 306 305 305 304 303 302 303 305 303 299 297 299 297 291 289 291 292 291 291 292 292 291 292 292 292 291 291 293 292 291 292 295 295 293 293 296 297 296 297 299 299 298 297 294 293 292 292 292 292 292 292 292 292 292 292 292 291 291 290 290 290 290 290 290 290 290 290 289 289 289 289 289 289 289 288 288 287 287 287 287 287 287
304 304 304 306 307 306 306 304 303 301 300 299 299 296 291 292 298 297 290 285 286 289 291 292 293 293 292 292 293 293 292 292 293 293 291 291 294 295 296 299 300 298 296 296 297 296 295 294 293 292 292 292 292 292 292 292 292 292 292 292 292 291 290 290 290 290 290 290 290 290 289 289 288 289 288 288 288 288 288 287 287 287 287 287 286 286 286
302 303 303 305 306 304 302 302 304 304 301 299 298 296 294 296 299 295 287 284 287 289 289 288 290 293 293 293 293 295 294 293 294 293 292 294 297 297 297 298 300 300 299 298 296 295 294 293 292 292 293 292 292 292 292 291 291 291 291 291 291 291 290 290 290 290 290 290 289 289 288 288 288 288 288 287 288 288 287 287 286 286 286 286 285 285 285
300 303 303 303 305 305 303 304 308 308 305 302 300 298 296 298 297 291 286 286 288 289 289 289 290 293 293 293 296 298 295 292 292 294 295 297 299 297 295 296 298 298 297 296 295 293 292 292 291 292 292 292 292 292 291 291 291 291 291 291 291 290 290 290 290 290 290 289 289 288 287 287 287 287 287 287 287 287 286 286 285 285 286 285 285 284 282
302 301 299 297 300 302 301 302 305 303 301 300 299 295 292 294 294 289 285 285 288 293 295 294 293 293 295 297 299 298 294 290 291 294 296 296 296 295 295 297 297 296 295 295 293 292 291 291 291 291 292 291 291 291 291 291 291 291 291 291 291 291 291 290 290 290 289 288 288 287 286 286 286 287 287 287 287 286 285 285 285 285 285 284 282 280 279
304 302 298 297 297 297 297 298 300 300 298 297 295 291 290 291 289 285 283 286 291 295 295 293 292 295 298 297 295 293 292 293 295 297 296 296 295 295 295 295 295 295 294 293 291 290 291 291 291 291 291 291 291 291 290 290 291 291 291 291 291 291 290 290 290 289 288 287 286 286 286 286 286 286 286 286 286 285 284 284 285 285 283 281 279 278 277
Wind_Speed
2 3 3 4 5 3 2 4 6 8 9 8 5 3 2 2 2 2 5 1 2 5 3 3 4 2 1 1 0 1 2 2 0 1 1 1 0 2 1 0 1 1 1 1 2 1 1 2 1 1 1 1 1 1 3 2 1 1 2 1 1 0 2 1 4 5 3 3 4 3 3 3 1 2 2 4 3 4 5 5 3 1 3 2 3 3 8
2 3 4 4 4 2 3 5 8 9 8 7 4 1 1 1 2 1 5 3 1 3 1 1 1 1 1 2 1 2 1 2 1 1 0 0 1 1 0 1 0 1 1 2 2 1 0 0 1 1 2 1 0 2 3 2 1 1 2 2 0 1 1 1 3 6 5 5 5 5 4 1 2 3 2 4 5 7 4 2 3 0 5 6 4 5 9
3 4 4 4 3 2 3 6 8 8 6 5 3 1 1 2 1 1 4 5 4 2 3 5 4 2 1 2 0 0 1 0 2 2 1 1 2 2 1 1 1 1 2 2 1 0 0 1 1 1 1 1 0 1 2 1 1 1 1 0 1 1 2 2 2 1 4 4 4 4 2 2 2 1 3 4 6 9 5 2 3 2 5 6 5 7 11
4 4 4 4 3 1 3 6 7 5 4 5 4 2 1 2 1 2 5 6 5 2 0 5 5 4 4 2 1 2 1 2 1 2 1 1 2 2 0 1 2 2 2 1 1 1 1 1 0 1 1 2 1 1 0 1 2 2 1 1 2 2 1 3 5 6 6 6 7 3 0 3 5 5 5 5 6 7 6 4 3 5 3 4 8 11 14
5 5 5 4 3 2 3 5 4 3 4 5 4 3 3 2 1 0 2 3 3 4 4 4 4 3 4 2 1 4 2 2 1 1 1 1 1 1 0 1 2 2 2 1 2 2 1 1 1 2 3 2 2 1 1 1 2 3 0 1 3 3 2 4 6 9 9 8 10 8 4 6 10 9 6 7 8 7 7 7 8 4 2 6 11 9 9
6 6 6 5 4 2 2 3 3 3 4 4 3 3 2 1 1 2 1 1 0 2 2 3 4 3 3 2 1 3 2 2 2 1 1 1 0 1 0 2 4 6 5 2 2 2 0 1 2 1 2 1 1 2 0 0 2 3 1 3 3 5 3 5 4 7 10 9 12 12 7 8 10 9 9 8 9 11 14 16 12 6 4 13 14 8 10
7 7 7 6 5 3 3 3 4 3 3 3 2 1 1 2 1 0 1 1 3 2 1 2 5 5 4 2 1 4 5 4 4 2 2 2 2 2 1 5 6 7 5 3 3 3 2 2 3 2 3 2 1 0 2 1 0 1 2 2 1 4 3 4 3 7 10 9 11 12 8 6 8 10 11 10 11 15 17 17 13 10 13 19 19 19 20
8 7 7 6 5 6 5 4 5 4 3 3 0 1 0 1 2 1 3 3 1 1 1 3 5 2 2 1 2 4 6 6 4 2 4 1 2 2 3 6 6 5 5 5 4 6 5 4 4 4 4 2 3 3 3 2 1 0 1 1 1 1 3 2 2 4 9 7 6 6 5 6 10 13 12 10 10 12 13 13 10 8 13 19 17 17 19
8 7 7 7 7 8 7 6 6 6 4 3 1 1 1 1 3 3 4 2 1 1 1 3 4 0 1 2 3 3 6 8 5 1 3 4 4 5 7 6 2 2 3 5 6 7 6 6 6 7 6 3 4 3 2 5 5 2 3 1 0 2 2 2 4 3 6 4 5 8 8 7 10 15 15 11 9 8 8 8 8 9 12 13 10 9 13
7 6 7 8 9 9 9 8 8 7 5 4 2 1 2 2 1 2 4 2 1 1 1 2 2 2 3 3 3 3 5 7 6 2 1 1 3 5 7 6 4 3 2 6 7 5 6 6 5 6 4 2 2 2 3 6 7 5 4 2 1 3 2 1 3 1 6 5 6 9 10 8 7 9 9 8 8 7 7 7 9 12 10 7 6 9 12
8 9 10 10 11 11 11 10 10 8 8 7 5 3 3 3 1 2 5 2 2 1 2 0 1 2 2 2 2 1 2 5 6 4 2 1 0 1 4 6 4 2 4 5 4 2 4 4 2 3 4 5 4 3 4 5 4 5 6 3 2 4 4 2 1 1 5 7 7 7 6 4 5 5 6 7 7 9 10 10 11 12 9 8 9 11 12
10 11 11 12 11 11 10 9 8 7 8 10 7 4 3 4 2 3 5 2 3 0 1 3 3 2 1 2 2 1 3 5 3 3 4 2 1 3 3 4 3 1 2 1 2 2 1 0 2 3 5 5 5 4 3 3 1 2 5 6 4 5 4 2 1 2 4 5 6 6 3 6 8 5 4 5 5 7 8 11 13 11 11 13 14 15 16
8 8 8 9 9 8 8 7 7 7 9 11 10 6 4 4 3 3 5 3 2 2 3 3 1 1 1 2 4 1 2 1 2 3 4 2 1 3 3 2 3 1 2 2 4 4 2 1 1 1 1 3 4 3 1 1 1 0 3 5 5 6 4 1 1 2 3 3 2 1 6 10 10 6 1 3 2 3 2 9 13 12 11 12 13 16 18
4 4 4 5 5 6 6 5 6 6 9 11 11 8 6 5 3 2 4 3 3 4 5 1 2 2 3 3 5 2 1 2 4 4 3 2 2 1 2 1 0 3 4 1 3 3 1 1 3 3 3 3 3 2 1 1 2 2 1 0 3 6 4 1 0 2 2 1 3 3 7 12 10 3 1 2 2 4 3 5 10 8 8 9 10 14 16
3 4 3 3 2 3 4 4 4 6 8 11 12 10 8 7 5 3 2 4 1 3 3 2 3 5 5 3 5 4 2 1 1 2 2 2 2 1 3 2 3 6 3 2 2 2 1 1 2 3 3 2 1 2 0 1 2 3 3 3 3 4 3 3 2 2 1 1 4 4 5 6 6 4 3 2 3 5 6 0 8 8 8 11 11 13 14
4 4 4 3 2 0 2 3 4 5 7 9 10 9 7 7 7 5 1 4 3 1 2 2 3 5 5 2 4 5 3 2 2 1 3 3 2 2 3 2 3 4 3 3 1 3 3 1 1 1 2 2 2 2 1 1 1 2 4 5 4 3 2 4 3 2 1 2 2 3 3 7 7 5 4 3 3 5 6 3 7 7 8 9 10 12 13
4 4 4 4 3 1 0 1 3 4 5 6 6 7 6 6 8 7 2 3 2 1 2 0 1 3 4 2 2 3 3 3 3 2 0 1 1 2 3 3 3 2 2 2 1 3 3 0 1 1 4 3 2 1 2 1 2 2 2 4 4 4 3 2 2 4 2 3 3 3 5 9 8 4 4 3 1 5 5 7 9 6 7 8 9 11 12
5 4 4 3 3 2 1 1 2 3 3 4 3 3 3 3 7 8 4 4 2 1 1 1 1 2 3 2 3 3 2 3 3 2 2 0 1 2 1 1 1 1 0 2 2 2 2 2 2 2 4 3 1 1 2 2 2 3 3 3 2 1 1 2 3 4 4 5 4 4 5 9 7 3 5 4 1 3 3 7 7 4 6 7 8 10 12
5 5 4 4 3 3 3 2 3 3 3 3 3 2 1 2 7 9 4 3 2 1 1 2 2 1 0 1 1 1 0 2 3 3 3 1 2 4 3 1 1 0 1 2 2 2 2 2 2 3 2 4 1 2 3 3 3 3 4 3 2 2 1 1 2 3 3 4 3 4 6 6 2 5 3 2 1 3 5 6 5 5 8 8 7 10 11
7 6 6 5 5 4 4 3 4 4 4 4 2 1 1 1 6 8 4 3 4 3 1 3 3 2 2 2 1 0 1 1 2 4 5 3 3 4 3 2 2 1 2 1 1 1 2 3 3 1 2 3 2 1 2 4 3 3 5 4 4 5 3 2 3 4 3 2 1 2 6 5 6 9 2 1 4 5 9 7 7 9 11 10 8 9 10
8 8 7 7 6 6 5 5 5 4 4 3 2 2 4 3 3 5 4 3 5 3 0 1 2 2 3 3 2 2 1 1 1 3 4 3 3 4 2 2 3 3 2 3 2 1 2 3 2 1 1 2 1 1 2 3 5 4 3 2 2 4 5 3 3 3 3 3 4 4 3 4 7 5 3 5 8 9 9 9 11 12 12 10 9 10 11
10 9 9 8 7 7 6 6 5 4 3 3 4 3 5 8 8 7 3 6 10 9 5 4 4 4 6 5 3 1 2 2 1 1 2 2 1 2 1 1 3 2 2 2 2 1 1 2 2 1 1 2 2 3 3 1 5 5 0 1 3 6 6 4 4 4 4 5 8 7 4 2 6 7 8 11 12 12 11 10 11 12 11 10 9 12 14
10 10 10 10 9 9 8 7 6 4 3 3 4 4 8 10 10 8 7 11 14 11 6 6 5 5 5 5 4 2 2 2 1 1 2 3 1 1 0 1 2 2 1 2 3 3 2 2 2 2 2 3 2 1 2 2 3 4 1 2 5 4 2 1 2 4 5 5 7 8 8 8 7 8 10 12 14 14 12 11 11 12 12 11 10 13 16
12 12 11 10 10 11 10 10 9 8 6 6 6 6 8 10 9 7 8 9 8 5 3 3 2 1 1 2 3 2 1 1 3 3 2 3 2 1 2 2 2 0 1 2 2 2 2 1 1 1 2 3 2 1 3 3 4 3 1 3 5 3 3 1 3 4 5 6 7 8 9 12 14 12 11 11 11 11 10 10 11 13 13 13 12 14 15
11 11 11 10 10 10 10 11 11 11 10 10 9 7 7 7 4 3 3 4 3 4 3 2 2 0 0 1 1 2 3 2 3 3 2 2 2 1 2 2 1 0 3 2 1 2 1 1 1 1 3 3 1 2 3 2 2 1 2 3 5 3 3 2 3 3 4 7 12 14 13 14 15 12 9 10 11 11 10 10 11 13 14 14 14 13 13
9 8 8 8 8 8 9 10 11 12 12 11 9 6 3 2 2 1 2 3 3 4 4 0 2 1 1 1 1 2 3 1 1 2 1 3 3 1 2 4 3 1 2 2 2 3 2 1 1 2 3 2 1 1 2 2 2 2 2 4 3 2 2 3 3 4 5 8 11 12 12 13 14 13 12 13 13 14 15 15 15 15 15 16 16 15 13
10 9 7 6 7 7 7 9 11 13 13 11 11 9 6 4 3 1 2 2 2 2 2 1 2 2 3 2 1 3 3 2 1 0 2 2 1 1 2 4 3 2 3 3 1 2 2 1 1 3 4 2 1 0 1 2 1 1 3 6 3 2 3 3 2 4 6 8 10 11 11 11 13 15 16 17 16 16 17 17 17 17 17 17 18 19 17
12 11 9 7 6 6 6 8 10 11 10 8 8 9 11 11 9 5 3 2 2 3 3 2 1 1 2 1 2 3 2 2 1 1 0 1 1 2 2 2 2 1 2 2 1 1 2 2 2 3 2 0 1 2 2 2 2 1 4 5 3 3 4 2 3 6 8 11 12 11 9 10 13 16 18 18 15 15 16 17 17 18 18 17 17 19 20
13 14 12 9 8 6 5 6 6 5 5 6 5 4 7 11 12 10 7 5 5 6 5 3 1 1 1 1 2 2 2 2 2 2 1 1 0 2 2 2 1 1 2 2 1 1 2 3 3 1 1 1 1 2 2 2 1 3 6 6 5 5 5 5 6 8 9 11 12 10 10 13 16 17 17 15 13 13 16 17 17 17 18 18 17 17 18
14 15 15 14 11 7 3 1 2 2 4 5 4 3 4 6 7 7 6 4 3 4 5 3 1 0 1 1 1 2 2 1 1 1 1 2 2 2 2 2 2 1 1 2 1 2 2 3 1 1 2 1 2 1 0 0 1 5 6 7 6 5 5 5 7 7 8 10 10 9 11 14 14 14 13 12 14 15 16 16 18 19 20 20 18 16 17
12 14 15 15 14 11 8 5 3 3 3 3 2 2 2 1 4 5 5 3 1 3 4 4 1 0 1 1 1 2 2 2 1 2 3 3 4 4 3 2 2 1 1 1 1 1 2 2 0 1 2 1 3 2 1 1 1 5 8 7 7 7 7 8 7 7 8 10 10 9 10 10 10 11 13 14 18 19 16 15 20 23 23 22 20 18 19
9 10 11 12 12 11 11 11 10 9 8 7 7 6 3 1 4 5 2 1 1 2 4 3 2 1 1 2 1 1 2 2 2 2 2 3 2 2 2 2 2 1 2 1 0 1 2 1 1 0 1 2 3 2 2 2 2 6 8 8 8 8 8 9 9 8 7 7 9 12 14 13 11 12 14 16 19 20 17 17 23 27 26 23 23 22 22
6 7 7 8 8 8 8 9 8 7 7 9 10 8 7 7 7 5 2 1 1 2 3 4 2 1 1 1 1 1 1 2 1 2 1 2 2 1 1 1 0 1 1 2 1 1 1 1 3 1 2 2 3 3 1 2 6 8 9 9 9 9 9 9 9 8 7 7 7 9 13 17 17 17 17 17 18 20 19 20 24 26 24 20 19 21 21
5 5 5 6 6 6 5 4 4 4 4 4 5 5 6 7 8 8 5 1 2 2 3 3 2 1 2 1 2 1 1 1 1 1 1 1 1 1 1 1 2 1 1 1 1 1 1 1 2 1 2 2 3 2 1 5 8 9 9 9 9 8 9 9 7 8 9 10 8 7 10 14 18 18 18 17 18 20 22 21 20 20 19 18 17 18 18
5 4 4 5 5 5 5 4 3 2 1 1 2 4 5 4 5 8 7 3 2 2 2 2 3 1 2 4 4 2 0 1 1 1 1 1 1 1 1 1 2 1 1 0 1 0 0 0 2 1 1 2 1 1 4 6 8 8 8 9 9 9 10 11 11 11 11 10 11 11 11 13 14 15 16 16 17 18 20 19 18 17 17 18 18 18 17
5 5 5 5 5 5 3 2 3 2 1 1 3 4 4 3 3 3 5 6 6 3 1 1 3 2 1 2 3 2 1 2 2 0 1 1 1 1 2 3 1 2 0 2 1 1 1 0 2 2 1 1 2 4 6 5 6 8 9 9 9 8 9 12 13 13 13 12 12 12 13 14 15 14 15 16 17 17 17 18 18 18 18 18 19 18 16
6 6 6 5 5 3 2 1 2 3 3 3 5 5 3 2 1 1 2 5 7 5 4 3 2 1 1 1 2 2 3 2 2 2 2 1 1 1 1 2 1 2 1 3 1 1 1 1 3 2 2 3 4 6 7 5 6 8 8 8 8 7 8 10 11 14 17 17 16 15 15 16 15 13 13 15 16 16 17 17 16 16 17 18 18 17 17
6 7 5 3 2 2 1 2 4 5 5 6 5 4 2 1 2 2 2 3 4 5 4 4 2 1 1 0 2 2 2 2 2 3 1 1 0 1 1 1 1 1 1 2 2 2 1 3 2 2 4 5 4 6 7 6 6 6 6 7 7 7 7 8 10 14 16 17 18 18 18 18 19 18 17 18 18 17 16 15 15 15 16 16 17 18 19
6 6 4 2 1 0 2 4 7 7 5 4 3 2 1 2 3 2 2 2 2 3 3 4 1 1 2 1 3 2 2 2 2 3 2 1 1 1 1 0 1 1 1 1 1 1 2 2 1 1 3 5 4 4 5 5 4 5 6 7 8 9 9 8 10 12 12 11 13 15 15 16 18 19 18 18 19 19 18 17 18 19 19 20 22 22 19
6 4 3 1 1 2 4 6 7 6 3 2 2 1 1 2 2 0 1 2 2 2 1 2 0 1 1 2 2 2 2 3 1 1 1 1 1 0 1 1 1 1 1 2 1 1 1 0 0 1 2 4 4 4 4 4 5 6 7 9 12 15 14 12 13 16 15 14 15 17 16 16 16 15 15 16 16 17 18 18 20 25 27 27 27 26 24
5 4 2 2 3 5 6 6 5 3 1 2 2 2 1 1 1 0 1 3 3 2 1 2 2 3 1 2 2 2 2 2 1 2 1 1 2 1 1 1 1 1 0 3 1 2 2 1 1 2 3 4 5 5 6 8 9 8 9 14 17 18 18 18 19 21 20 17 16 18 21 23 22 20 19 18 16 15 17 18 22 28 32 31 30 31 33
5 5 5 5 5 5 4 3 3 3 2 1 2 1 1 1 1 2 2 2 1 2 2 1 0 2 2 1 2 2 1 2 2 2 2 1 2 1 1 1 2 2 1 3 0 3 2 1 2 3 4 4 5 6 9 11 10 9 13 17 19 20 21 20 20 23 24 20 17 19 23 25 26 25 26 26 24 22 23 24 26 29 32 33 34 35 36
6 4 4 3 3 3 2 2 2 2 2 2 2 2 2 2 2 2 1 1 1 1 1 1 1 2 1 0 1 1 0 1 1 1 1 1 1 1 2 2 1 0 2 0 2 2 0 1 2 4 5 5 7 9 11 12 12 12 16 20 22 23 23 21 20 23 26 26 23 24 25 26 27 29 31 32 30 28 29 32 33 32 33 34 35 35 37
4 2 1 1 2 2 2 2 2 2 3 2 2 2 3 3 2 1 2 2 1 1 2 1 2 2 2 1 1 1 1 1 1 1 0 1 1 2 1 1 2 1 0 2 2 0 2 3 4 5 6 8 9 11 12 12 12 12 15 19 22 22 22 22 22 22 23 25 26 26 25 26 28 30 31 32 31 29 31 34 35 34 34 35 34 35 38
2 2 3 3 3 2 2 1 2 2 3 2 0 2 0 2 3 3 2 1 1 2 3 3 2 1 3 2 0 1 0 1 1 1 0 1 2 1 1 2 1 1 2 1 1 1 2 3 4 5 9 12 13 13 11 10 11 13 14 16 19 20 20 20 20 18 19 22 25 25 25 26 27 27 28 32 33 32 31 32 33 33 34 34 33 35 38
2 1 3 3 2 2 1 2 2 2 1 1 2 2 2 3 5 4 2 0 1 3 5 3 2 1 3 2 1 1 1 1 1 0 0 2 1 2 2 1 1 2 2 2 2 1 3 5 5 8 11 13 13 12 11 10 12 14 13 12 14 18 21 22 21 20 21 24 25 25 25 25 26 27 29 31 33 33 32 32 34 36 35 32 31 34 38
2 1 3 3 1 2 2 1 0 0 0 1 3 4 3 4 4 3 1 1 1 3 4 3 1 1 2 1 1 1 1 1 1 1 0 2 0 2 1 2 1 0 1 1 2 3 4 6 7 9 11 13 13 13 12 12 12 13 13 12 13 17 21 23 23 22 24 26 26 25 25 27 30 31 29 29 31 33 33 34 38 40 37 33 34 37 38
1 1 2 2 1 1 1 1 1 2 2 1 2 3 3 2 2 3 3 2 1 3 4 3 2 2 2 1 2 1 1 1 1 1 0 1 1 2 2 2 2 2 1 0 3 5 5 7 9 11 12 12 12 12 12 12 13 14 14 14 14 17 21 23 22 23 27 27 24 23 26 30 33 32 30 29 31 33 34 36 41 41 37 35 37 38 37
4 2 2 2 1 1 0 2 4 3 2 3 3 3 3 3 3 5 5 3 2 3 2 1 0 1 2 1 2 2 1 1 0 1 1 2 1 0 0 1 2 3 2 1 3 5 7 8 10 12 13 12 12 12 12 13 14 15 15 17 19 22 24 25 25 26 28 26 24 26 32 35 33 32 31 30 29 30 35 39 40 38 37 37 37 36 38
5 4 2 2 2 2 2 3 4 2 4 5 4 4 4 4 3 4 4 3 3 3 2 1 1 0 0 1 2 2 1 1 1 1 1 1 0 1 0 1 2 3 4 4 5 7 8 9 10 12 13 14 13 12 13 14 16 18 20 24 26 28 29 29 29 27 26 26 28 32 35 34 33 32 31 30 30 32 36 40 40 37 35 34 34 37 43
4 4 2 2 3 2 2 2 2 2 3 4 3 3 3 2 2 4 6 5 3 3 3 2 0 1 2 2 1 0 1 1 1 1 1 2 2 2 1 3 4 4 6 7 7 7 8 8 8 10 12 13 13 13 16 19 21 23 26 28 29 30 31 31 29 26 27 30 33 34 35 35 36 36 36 37 35 31 30 34 39 37 32 31 37 45 49
3 2 1 2 3 3 2 1 1 1 1 1 1 1 2 1 2 6 8 6 3 2 1 1 0 2 2 0 1 0 1 1 1 1 2 1 1 2 3 5 6 5 6 8 9 9 8 8 9 10 12 13 15 19 23 25 25 27 30 32 32 32 31 29 25 25 28 32 34 36 38 39 39 40 39 35 27 20 21 26 31 32 33 37 43 49 51
Wind_Direction
336 333 329 326 332 338 343 347 344 346 350 349 345 339 12 96 183 321 16 80 146 71 57 335 20 64 233 250 329 6 87 109 195 310 18 50 98 24 31 140 60 128 171 146 144 147 189 199 187 182 184 184 217 317 15 22 41 77 130 204 309 52 95 74 280 286 295 296 308 340 22 57 118 240 160 148 152 141 154 177 172 195 243 198 125 239 268
312 315 313 315 325 330 337 346 346 349 348 339 336 318 151 146 209 334 34 32 63 85 151 233 52 272 284 45 1 329 67 111 129 169 251 164 129 92 160 212 98 178 125 100 155 204 114 175 191 157 167 189 275 3 5 12 109 132 177 179 280 282 151 94 340 329 338 348 344 336 344 45 219 243 188 153 122 106 111 112 89 320 230 177 153 242 263
295 295 297 309 318 315 336 351 352 353 355 352 359 15 148 67 9 323 7 20 51 114 181 153 143 189 126 86 226 3 35 226 172 159 182 191 158 149 215 184 124 100 64 67 65 284 52 272 314 63 128 253 284 14 332 335 142 209 268 83 109 211 191 128 102 316 303 309 309 298 275 234 234 213 181 167 133 133 145 105 94 243 228 164 166 246 273
282 283 289 299 293 291 346 359 2 5 10 10 12 21 79 73 11 312 335 9 51 60 109 109 120 165 144 115 213 139 95 282 230 131 136 219 154 142 225 128 96 62 64 77 277 282 13 19 96 158 209 256 269 188 169 54 145 185 292 25 91 87 262 205 186 203 224 247 258 259 340 283 272 254 210 190 174 160 138 112 168 204 193 192 222 240 275
273 276 286 285 261 264 348 1 0 357 2 5 10 28 58 96 183 202 329 342 31 24 14 74 103 167 150 125 192 160 155 293 329 41 245 209 133 108 130 137 145 166 145 144 229 224 38 41 173 209 205 226 296 268 159 128 165 170 247 330 105 86 300 245 210 228 238 250 267 278 296 274 265 262 233 195 185 169 160 193 212 167 103 265 249 223 251
273 274 280 270 248 253 317 336 330 338 358 2 11 24 35 82 169 152 137 257 59 29 6 88 98 106 115 101 153 155 157 198 197 225 317 342 160 124 334 237 208 193 174 155 191 204 280 262 226 213 192 196 343 338 273 232 183 152 34 340 111 119 259 245 202 253 257 252 266 271 266 259 256 253 241 214 189 182 197 219 220 172 209 258 266 261 261
273 273 272 258 240 251 277 296 311 329 340 334 8 54 29 71 92 279 39 151 188 203 294 103 104 101 99 86 173 166 176 215 222 183 79 350 290 175 210 259 236 207 191 145 158 203 212 255 248 196 177 197 153 188 257 255 124 101 60 331 110 126 247 239 198 284 280 255 256 261 251 255 261 250 237 220 203 199 209 228 226 210 234 254 267 278 275
273 271 265 252 241 252 264 280 303 318 316 299 38 126 258 97 163 200 49 56 169 234 346 93 102 88 74 93 232 182 176 207 226 172 137 177 266 179 203 247 235 201 184 152 180 220 194 194 231 178 151 222 205 196 208 154 107 39 141 271 299 155 260 241 122 318 295 274 271 270 243 248 270 270 254 225 216 217 223 235 233 225 246 256 264 275 276
272 267 259 252 247 253 262 274 289 300 295 267 197 147 204 150 161 148 103 62 326 322 5 99 110 104 267 196 215 206 199 200 189 174 174 172 181 185 195 212 189 122 169 187 222 238 194 187 213 184 169 212 207 199 194 141 136 187 192 179 169 177 266 338 57 2 284 286 345 327 303 282 273 276 269 240 217 219 222 223 209 202 231 256 270 271 268
270 264 258 255 252 257 267 274 278 282 267 229 194 201 194 146 120 116 104 82 279 172 99 73 110 214 237 194 184 215 236 210 169 155 293 140 155 184 183 170 128 96 221 224 226 221 190 192 208 187 169 154 141 149 156 141 140 165 176 163 160 158 164 5 58 330 270 295 340 325 319 318 284 261 247 219 207 220 236 240 217 205 211 240 255 252 263
268 265 262 261 263 266 272 274 271 264 243 222 205 202 190 159 129 72 83 66 279 162 124 200 190 209 223 179 163 200 218 190 172 176 230 251 87 150 153 144 135 167 220 227 224 202 192 190 160 120 93 75 75 87 114 129 139 158 156 154 185 148 131 161 161 214 270 299 328 328 327 312 270 231 181 181 207 216 227 247 238 215 203 221 246 263 278
272 273 271 271 271 270 269 266 257 241 221 216 211 202 194 177 150 91 96 130 267 54 125 234 213 183 200 142 111 148 174 174 195 181 166 199 316 27 74 125 145 196 234 264 12 36 66 73 62 63 57 53 46 47 82 127 179 173 143 134 150 148 140 197 203 193 267 311 350 346 299 239 252 261 194 191 205 196 216 258 260 239 227 237 255 270 271
283 282 277 273 266 260 254 242 231 220 208 210 212 207 205 193 163 105 109 135 244 198 169 234 243 157 217 116 100 122 197 146 20 74 115 137 94 34 22 99 149 225 313 23 44 55 65 328 348 32 20 28 30 20 21 203 272 177 125 122 139 149 153 187 185 198 279 340 37 280 277 283 295 309 225 171 126 124 241 281 267 242 231 237 247 258 262
303 295 285 272 254 241 237 226 218 211 202 207 213 215 217 206 181 137 119 125 261 223 169 170 300 203 190 147 123 113 352 22 23 37 65 77 115 132 313 306 170 315 320 47 56 50 68 4 7 345 336 9 16 347 346 28 36 57 54 44 135 140 146 146 213 211 214 260 240 254 309 313 311 315 167 176 176 160 166 277 274 245 215 218 236 254 262
338 336 336 312 267 230 226 219 210 205 204 211 217 219 227 227 213 210 142 126 210 258 190 195 217 178 164 167 145 115 65 357 24 25 13 34 74 266 275 285 330 333 354 92 79 48 68 63 22 339 324 348 336 299 334 60 9 27 3 347 92 124 156 159 178 240 123 93 291 315 341 306 271 244 243 227 190 155 130 114 291 271 225 212 225 247 257
359 357 3 2 359 249 224 217 206 206 206 212 218 223 238 242 223 221 174 111 117 273 242 205 172 142 133 155 158 141 140 175 155 56 345 345 356 306 285 303 327 345 37 78 81 72 73 92 156 205 252 223 221 271 257 209 298 0 9 17 61 67 44 108 135 277 14 106 257 259 258 264 252 232 238 233 184 126 93 15 294 267 230 211 213 233 247
17 17 16 17 23 36 322 215 199 202 207 214 225 230 241 241 216 208 185 92 103 277 271 258 106 120 113 96 179 174 165 148 132 109 324 283 289 311 314 325 337 7 67 72 47 70 82 177 185 208 256 231 174 248 252 195 246 291 7 31 53 42 13 76 177 248 215 163 234 243 242 260 258 209 186 217 187 104 63 333 298 255 221 208 204 227 243
32 30 32 35 40 49 57 140 169 177 193 196 195 203 214 211 198 193 163 94 109 228 312 15 59 132 134 153 192 200 169 134 119 99 91 29 225 189 220 297 32 6 100 116 89 89 128 222 203 180 249 267 133 199 239 210 239 236 150 115 95 80 257 186 197 229 197 188 239 270 257 259 263 201 159 172 151 58 14 302 284 251 235 219 206 231 247
46 44 47 46 44 56 78 115 135 136 151 150 143 168 176 171 183 183 157 88 102 188 284 1 38 102 167 217 203 267 232 137 121 106 102 342 245 168 154 170 146 107 19 100 112 135 162 248 237 156 219 288 277 186 236 230 214 175 135 138 174 183 205 189 180 208 204 193 217 282 280 263 155 109 133 165 129 329 296 274 269 279 277 261 233 238 248
49 48 50 51 54 63 78 99 109 118 125 112 100 102 63 136 188 186 172 118 102 103 19 13 47 68 30 17 76 10 318 133 119 130 147 188 201 129 86 321 235 146 75 100 203 230 183 241 267 176 198 254 233 194 259 265 247 194 168 189 198 176 181 216 199 187 184 189 210 286 287 263 129 111 91 195 190 258 284 292 295 289 287 286 268 253 250
50 49 51 53 60 67 78 92 94 100 107 92 49 33 51 66 143 168 186 158 115 106 104 25 58 62 52 53 81 83 71 116 139 153 159 183 192 142 119 254 206 164 157 163 181 252 203 203 247 246 213 238 243 214 230 284 299 275 182 180 223 186 181 217 234 199 152 169 220 225 228 197 164 156 255 238 221 252 285 298 296 291 288 289 282 271 262
54 53 54 56 62 70 76 85 87 90 95 58 15 39 83 97 109 115 108 88 86 88 107 115 92 80 81 73 53 71 126 118 95 139 132 120 157 168 144 153 166 185 206 150 148 261 259 195 201 221 241 249 245 235 210 225 295 294 219 125 240 215 196 201 232 227 197 205 238 258 280 222 197 218 256 263 265 276 283 280 282 285 285 285 283 281 278
58 58 60 61 65 69 72 77 82 82 79 47 31 70 110 116 111 106 100 93 87 82 94 105 88 74 73 51 27 40 123 124 127 165 120 109 135 219 217 165 178 208 233 148 165 187 189 193 192 179 232 231 208 248 278 240 252 266 251 247 259 248 210 189 244 275 285 270 268 287 298 291 270 251 251 260 269 279 285 285 282 280 281 282 281 280 283
63 62 63 65 70 75 77 79 81 79 76 72 70 89 113 118 113 100 93 96 98 89 72 69 69 66 353 0 27 32 344 212 174 167 123 118 142 188 245 229 191 169 257 229 194 142 139 206 187 122 248 240 191 202 271 261 248 256 291 296 300 340 27 349 273 303 320 302 297 304 298 291 293 288 277 273 271 272 278 283 281 283 286 287 285 283 286
61 60 63 67 71 77 81 83 85 84 81 80 82 90 104 109 109 92 71 80 115 122 95 5 323 334 353 338 329 285 298 277 185 175 183 217 221 242 287 292 65 170 259 269 54 70 60 278 116 152 234 253 231 218 237 241 253 310 347 305 299 339 6 314 270 282 279 265 276 290 291 286 288 290 290 294 294 291 293 289 286 290 292 290 288 286 285
55 59 66 68 69 78 87 92 91 86 80 74 71 72 78 70 47 54 96 100 103 102 99 334 287 248 201 227 262 308 335 356 160 173 234 260 258 271 330 346 3 346 324 4 73 112 140 199 178 183 213 254 324 251 227 239 273 340 309 275 278 324 299 258 255 280 274 266 280 299 303 295 296 306 312 311 311 313 311 307 303 302 302 301 300 295 286
51 55 62 71 76 79 86 95 96 89 81 73 64 56 52 53 59 89 125 113 64 51 77 233 280 269 215 208 331 3 5 15 80 54 316 294 225 183 316 336 348 2 21 25 34 82 89 88 232 207 210 242 311 205 246 273 331 1 286 272 286 320 269 265 309 312 296 294 306 318 319 306 305 313 314 313 316 318 315 312 312 312 312 312 310 306 301
47 50 57 73 84 84 90 103 104 97 82 64 53 55 56 57 61 65 61 63 96 110 128 164 209 136 158 218 333 350 0 11 81 123 347 349 96 168 257 320 345 22 73 76 39 51 101 177 228 223 209 313 332 283 302 359 48 310 265 251 228 220 224 237 298 292 286 293 304 313 312 300 300 309 312 313 316 318 315 315 315 314 314 315 313 311 310
50 51 56 66 75 85 104 115 112 96 57 25 21 52 63 58 58 59 52 51 80 103 106 100 65 71 114 285 306 322 347 3 57 119 124 36 116 192 234 298 288 208 132 109 123 147 187 209 218 218 186 158 199 265 315 29 22 263 251 231 222 226 217 220 258 276 285 294 301 308 307 299 301 307 309 310 316 319 317 317 317 316 316 317 316 311 309
56 54 56 59 62 68 88 153 233 281 318 330 341 24 55 51 45 42 35 31 61 101 109 110 103 345 297 253 243 286 310 336 83 128 197 243 255 248 252 277 260 219 78 67 137 175 233 250 253 311 282 209 144 150 8 62 271 270 262 252 259 278 279 268 263 265 276 287 295 299 295 293 296 300 301 308 320 323 320 318 318 318 317 317 317 314 311
58 56 56 56 56 57 58 52 30 3 340 320 334 42 69 20 352 3 18 28 61 101 100 96 99 334 329 314 230 257 283 288 293 290 268 254 258 255 239 244 253 210 134 125 193 196 232 241 38 346 318 23 89 116 125 81 314 283 280 282 291 299 300 296 286 268 269 282 291 290 283 282 294 310 315 321 325 324 319 315 315 317 317 316 315 312 308
47 46 49 51 52 53 55 55 55 51 51 61 72 82 95 31 342 343 1 64 97 114 102 80 45 323 313 320 293 246 257 269 284 298 274 237 230 241 228 220 241 217 163 156 303 272 233 211 112 62 318 27 69 93 100 103 213 257 275 295 308 309 305 305 303 292 284 298 316 319 316 316 323 326 321 318 320 321 319 317 318 319 318 316 315 313 311
17 19 30 38 37 37 42 49 51 44 45 60 71 73 64 48 32 22 22 119 103 102 113 102 68 314 271 277 304 294 277 274 298 346 298 217 170 133 267 216 104 318 213 179 196 255 255 96 91 77 317 2 69 83 83 208 227 249 276 296 304 306 304 303 303 302 305 320 329 324 316 315 317 319 316 313 317 321 321 320 321 320 320 320 320 320 319
352 356 7 14 17 17 13 13 17 7 11 46 61 49 37 37 38 34 32 109 135 74 69 95 98 300 310 3 340 321 25 334 302 341 311 255 146 101 301 320 24 1 247 192 197 299 337 47 103 129 317 356 68 84 271 253 250 261 281 292 295 300 303 304 310 316 321 326 322 301 292 300 308 314 318 320 323 325 324 324 323 322 323 323 322 322 323
343 341 340 337 345 351 346 348 357 350 358 68 45 18 17 20 29 34 33 44 84 52 9 54 83 74 8 355 323 289 66 2 256 216 229 293 30 88 106 36 7 316 230 167 45 32 324 258 135 125 327 343 52 198 241 255 270 287 302 309 314 324 328 325 325 326 325 324 319 311 309 314 317 320 324 326 326 326 326 326 325 324 323 320 319 321 321
347 340 330 322 323 319 312 338 9 4 19 30 339 335 347 348 356 34 48 51 60 81 165 85 71 91 89 325 295 288 356 333 287 273 30 1 352 6 67 71 11 271 185 67 34 334 289 265 102 74 334 251 203 226 228 237 276 299 312 317 319 328 327 317 316 320 320 319 319 320 325 330 329 327 326 324 324 325 324 322 323 323 320 317 317 317 317
349 345 333 320 319 317 297 318 0 356 335 321 321 323 329 343 6 61 74 50 44 52 83 93 85 159 170 225 291 343 354 316 305 359 357 300 294 336 54 86 245 267 7 30 334 237 282 13 92 114 220 220 222 247 251 252 269 282 296 307 308 312 313 308 312 321 325 328 334 336 334 332 329 326 324 321 321 323 323 321 321 321 317 315 316 316 316
346 344 337 334 357 18 331 309 332 331 315 308 321 338 348 27 52 41 7 13 17 21 54 83 87 324 36 27 313 347 353 296 329 10 337 245 273 353 24 92 201 249 355 331 256 200 27 16 64 141 247 265 273 268 261 257 258 265 281 297 301 309 315 318 328 335 337 339 340 338 336 335 332 330 330 327 325 326 326 323 322 321 318 316 316 316 317
348 346 349 13 47 197 258 311 329 326 312 309 332 5 6 26 49 19 326 353 17 0 24 60 57 339 51 28 309 327 52 51 357 352 322 279 314 330 323 319 334 29 29 331 283 76 33 348 21 7 284 287 294 276 258 261 279 291 297 304 313 323 327 329 337 340 336 329 323 323 325 327 326 327 328 328 327 328 328 326 325 324 322 320 318 318 317
355 356 0 17 342 278 290 316 326 324 320 347 14 45 28 20 43 80 302 23 35 357 8 66 38 266 98 105 271 296 39 58 352 271 264 279 284 325 68 334 318 37 17 298 292 63 71 247 340 343 275 264 271 275 283 314 331 326 321 327 332 335 335 336 338 337 331 323 321 322 319 317 317 318 319 320 321 322 321 322 322 322 321 321 320 319 317
349 352 336 302 308 309 305 314 329 346 43 45 28 41 43 4 358 44 49 40 23 316 297 68 25 312 330 113 194 248 347 27 64 137 114 312 307 60 63 293 305 76 310 264 266 74 77 68 310 263 245 252 274 295 321 337 339 337 339 341 340 340 341 341 340 340 338 333 326 324 322 320 319 318 315 313 314 314 314 316 317 318 319 319 318 317 316
329 317 305 296 301 308 312 328 358 21 51 54 23 18 11 353 8 18 21 36 22 293 280 74 121 263 266 150 170 214 318 18 34 82 87 304 298 89 102 303 1 57 235 249 353 59 54 19 285 268 267 280 299 316 334 341 339 339 343 345 345 345 344 342 339 336 334 329 320 318 319 318 316 316 315 313 312 311 311 312 313 314 315 314 313 313 313
327 309 306 307 316 339 355 356 6 34 47 43 36 18 350 352 23 27 334 309 344 318 280 282 312 302 301 77 144 218 337 22 38 83 99 261 289 59 57 29 24 194 232 257 59 59 13 220 231 262 289 312 322 332 341 342 338 338 342 344 344 341 337 334 330 327 325 323 319 316 315 314 313 314 313 312 311 310 310 311 312 312 313 312 312 312 311
333 328 3 8 352 10 13 338 342 45 43 20 37 48 2 340 337 325 306 303 313 311 298 312 352 335 309 295 76 52 348 1 61 71 20 311 11 56 55 286 249 238 314 30 54 176 239 232 233 262 305 326 333 337 341 340 338 338 337 335 335 333 329 327 325 322 321 320 317 315 315 315 314 313 314 314 313 312 311 312 314 315 314 314 313 312 312
2 9 31 27 354 356 25 356 355 43 47 10 50 119 116 271 256 265 288 282 244 305 327 358 32 338 276 273 45 78 314 342 35 45 308 358 21 24 220 232 257 33 48 23 353 347 317 296 290 317 331 333 332 334 334 333 333 333 328 325 327 328 325 323 322 320 318 317 316 317 318 318 316 316 317 316 315 314 313 314 317 319 318 316 315 314 316
76 68 72 69 357 329 45 43 11 28 67 230 198 176 195 238 240 247 271 301 284 305 313 326 359 340 294 295 354 41 14 32 35 320 85 70 29 271 235 172 37 32 33 8 350 336 295 294 313 332 330 325 324 326 327 328 329 328 324 320 320 320 319 320 319 317 315 316 317 317 318 318 319 319 317 314 315 315 315 317 321 322 320 318 317 318 319
82 66 79 85 13 352 48 86 169 153 126 199 203 206 236 267 267 269 289 253 263 299 307 304 298 289 281 297 21 347 332 43 51 299 354 89 187 276 355 57 41 274 58 11 318 289 288 308 323 327 323 322 324 325 326 327 326 323 320 316 313 315 318 319 317 316 316 318 318 318 319 321 321 319 316 314 315 315 316 320 324 323 319 319 320 320 321
101 57 64 98 133 7 32 87 130 85 53 4 253 244 266 302 320 330 333 315 300 327 335 342 357 335 306 339 53 18 316 4 37 286 290 89 81 326 5 19 318 275 166 169 300 304 313 320 321 318 319 323 325 323 322 324 321 319 318 315 313 316 318 317 315 316 317 318 319 321 322 322 321 318 316 315 314 313 317 322 323 319 318 320 321 321 324
81 77 62 86 134 194 185 105 99 84 20 333 317 327 355 2 326 315 329 345 338 313 286 237 116 338 294 323 49 45 324 318 44 331 358 35 58 226 43 11 316 303 292 298 320 321 317 316 318 319 320 323 322 319 319 318 317 315 315 314 315 317 317 315 314 315 317 319 322 324 323 322 320 318 316 314 312 313 317 320 319 316 316 319 322 327 332
53 63 57 41 32 356 351 42 61 31 331 336 348 354 358 355 330 326 346 356 324 311 329 69 93 44 306 27 41 27 307 271 122 77 1 323 220 147 52 297 285 295 307 317 324 321 315 315 319 318 317 318 318 315 313 314 314 314 315 316 318 318 317 315 314 315 317 321 324 323 321 319 317 314 312 311 309 311 315 319 317 314 315 322 333 340 338
44 62 64 48 54 41 349 4 33 351 323 335 343 330 335 346 329 328 336 339 343 8 26 28 353 34 39 34 24 293 275 292 82 73 317 259 179 113 21 298 290 311 322 315 311 312 314 317 319 318 316 317 315 313 312 314 315 317 319 319 319 318 316 314 314 316 318 321 322 321 318 316 314 312 311 310 309 312 318 320 317 317 324 336 342 341 335
50 66 47 35 58 65 33 22 60 31 340 314 228 295 352 4 313 317 328 343 23 53 23 285 52 68 67 284 244 257 2 11 19 353 315 275 129 75 355 320 316 322 319 313 315 318 317 315 314 312 309 308 308 310 312 315 319 322 323 322 319 318 315 313 313 316 318 318 318 318 316 315 315 315 313 310 311 319 321 315 316 326 338 341 338 334 330